Ephrata, WA
on Wednesday, February 13, 2013

Wednesday
Previous Day Next Day
Daily Summary
 ActualAverageRecord
Temperature
Mean Temperature °F 34°F  
Max Temperature 52°F 42°F 60°F (1971)
Min Temperature 32°F 25°F 12°F (1985)
Degree Days
Heating Degree Days 23 31  
Month to date heating degree days 394 423  
Since 1 July heating degree days 3830 4131  
Cooling Degree Days 0 0  
Month to date cooling degree days 0 0  
Year to date cooling degree days 0 0  
Moisture
Dew Point 28°F   
Average Humidity 61    
Maximum Humidity 85    
Minimum Humidity 36    
Precipitation
Precipitation 0.00 in 0.02 in 0.31 in (1987)
Month to date precipitation T 0.33  
Year to date precipitation 0.19 1.24  
Wind
Wind Speed 8 mph   
Max Wind Speed 18 mph   
Max Gust Speed 21 mph   
Visibility 10 miles   
Events     

Key: T is trace of precipitation, MM is missing value
Source: NWS Daily Summary
Time(PST)TemperatureDew PointHumidity Pressure Visibility Wind DirectionWind SpeedGust SpeedPrecipitationEvents Conditions
12:53 AM 42.1°F 33.1°F 70% 30.17 in 10.0 miles South 13.8 mph - N/A   Scattered Clouds
1:53 AM 43.0°F 33.1°F 68% 30.14 in 10.0 miles WSW 12.7 mph - N/A   Clear
2:53 AM 42.1°F 32.0°F 67% 30.14 in 10.0 miles SW 10.4 mph - N/A   Clear
3:53 AM 37.9°F 30.9°F 76% 30.15 in 10.0 miles SSW 9.2 mph - N/A   Clear
4:53 AM 39.9°F 30.0°F 68% 30.17 in 10.0 miles Variable 3.5 mph - N/A   Clear
5:53 AM 39.9°F 30.0°F 68% 30.18 in 10.0 miles Calm Calm - N/A   Clear
6:53 AM 32.0°F 28.0°F 85% 30.21 in 10.0 miles Calm Calm - N/A   Clear
7:53 AM 39.0°F 30.0°F 70% 30.23 in 10.0 miles Calm Calm - N/A   Clear
8:53 AM 46.0°F 28.9°F 51% 30.25 in 10.0 miles WNW 4.6 mph - N/A   Clear
9:53 AM 48.9°F 30.0°F 48% 30.25 in 10.0 miles WNW 8.1 mph - N/A   Clear
10:53 AM 51.1°F 28.0°F 41% 30.24 in 10.0 miles WNW 15.0 mph - N/A   Unknown
11:53 AM 51.1°F 27.0°F 39% 30.24 in 10.0 miles NW 13.8 mph - N/A   Clear
12:53 PM 51.1°F 26.1°F 38% 30.24 in 10.0 miles NW 13.8 mph - N/A   Clear
1:53 PM 50.0°F 28.0°F 43% 30.25 in 10.0 miles North 8.1 mph - N/A   Clear
2:53 PM 50.0°F 27.0°F 41% 30.25 in 10.0 miles WNW 6.9 mph - N/A   Clear
3:53 PM 50.0°F 25.0°F 38% 30.26 in 10.0 miles WNW 5.8 mph - N/A   Clear
4:53 PM 48.0°F 26.1°F 42% 30.27 in 10.0 miles NNW 3.5 mph - N/A   Clear
5:53 PM 43.0°F 25.0°F 49% 30.28 in 10.0 miles WNW 3.5 mph - N/A   Clear
6:53 PM 41.0°F 25.0°F 53% 30.30 in 10.0 miles WNW 6.9 mph - N/A   Clear
7:53 PM 42.1°F 25.0°F 51% 30.31 in 10.0 miles NW 9.2 mph - N/A   Clear
8:53 PM 42.1°F 25.0°F 51% 30.32 in 10.0 miles WNW 15.0 mph - N/A   Clear
9:53 PM 41.0°F 25.0°F 53% 30.34 in 10.0 miles NW 13.8 mph - N/A   Clear
10:53 PM 39.0°F 25.0°F 57% 30.35 in 10.0 miles NW 10.4 mph - N/A   Clear
11:53 PM 39.0°F 25.0°F 57% 30.38 in 10.0 miles NNW 5.8 mph - N/A   Clear
Moon Phase
Feb. 13 Feb. 17 Feb. 25 Mar. 04 Mar. 11
Sunrise:07:05 AM (PST) Moon Rise:08:18 AM (PST)2/13
Sunset:05:19 PM (PST) Moon Set:09:48 PM (PST)2/13

Copyright © 2014 The Weather Underground, Inc.